Regional Weather Roundup
Issued by NWS

Home | Current Version | Previous Version | Graphics & Text | Print | Product List | Glossary On
Versions: 1 2 3 4 5 6 7 8 9 10 11 12 13 14 15 16 17 18 19 20 21 22 23 24 25 26 27 28 29 30 31 32 33 34 35 36 37 38 39 40 41 42 43 44 45 46 47 48 49 50
902
ASUS43 KLMK 250510
RWRKY
KENTUCKY REGIONAL WEATHER ROUNDUP
NATIONAL WEATHER SERVICE LOUISVILLE KY
100 AM EDT THU MAY 25 2017

NOTE "FAIR" INDICATES FEW OR NO CLOUDS BELOW 12,000 FEET
WITH NO SIGNIFICANT WEATHER AND/OR OBSTRUCTIONS TO VISIBILITY.

KYZ001>023-026-027-061>063-070>075-250600-
WESTERN AND SOUTH CENTRAL KENTUCKY

CITY           SKY/WX    TMP DP  RH WIND       PRES   REMARKS
PADUCAH        PTCLDY    58  49  72 W8        29.59R
HENDERSON      CLOUDY    58  55  90 W8        29.54S
OWENSBORO      CLOUDY    58  55  90 W9        29.53R
HOPKINSVILLE   PTCLDY    54  54 100 SW5       29.58S
BOWLING GREEN  CLOUDY    57  55  93 SW7       29.56R
GLASGOW        CLOUDY    55  55 100 SW8       29.55S
$$

KYZ024-025-028>034-038-045-046-053-250600-
NORTH CENTRAL KENTUCKY

CITY           SKY/WX    TMP DP  RH WIND       PRES   REMARKS
LOUISVILLE/SDF CLOUDY    59  56  89 SW10      29.46F
LOUISVILLE/LOU CLOUDY    58  57  97 SW8       29.47S
FORT KNOX      CLOUDY    56  56  99 W8        29.47S
$$

KYZ035>037-039>044-047>052-055>060-089>105-250600-
NORTHEAST KENTUCKY

CITY           SKY/WX    TMP DP  RH WIND       PRES   REMARKS
LEXINGTON      CLOUDY    57  54  89 SW10      29.47R
COVINGTON      LGT RAIN  59  58  96 W8        29.40R
FRANKFORT      LGT RAIN  58  53  84 SW14      29.45R
$$

KYZ054-064>069-076>088-106>120-250600-
SOUTHEAST KENTUCKY

CITY           SKY/WX    TMP DP  RH WIND       PRES   REMARKS
JACKSON        CLOUDY    57  52  83 CALM      29.50R
LONDON         CLOUDY    56  49  77 SW8G16    29.54R
SOMERSET       CLOUDY    54  50  87 W6        29.55S
MIDDLESBORO    CLOUDY    56  49  77 SW3       29.56S
MONTICELLO     MOCLDY    55  51  86 W17       29.57R
$$





USA.gov is the U.S. government's official web portal to all federal, state and local government web resources and services.